Regional Weather Roundup
Issued by NWS

Home | Current Version | Previous Version | Text Only | Print | Product List | Glossary Off
Versions: 1 2 3 4 5 6 7 8 9 10 11 12 13 14 15 16 17 18 19 20 21 22 23 24 25 26 27 28 29 30 31 32 33 34 35 36 37 38 39 40 41 42 43 44 45 46 47 48 49 50

000
ASUS45 KABQ 280101
RWRNM
NEW MEXICO REGIONAL WEATHER ROUNDUP
NATIONAL WEATHER SERVICE ALBUQUERQUE NM
700 PM MDT WED APR 27 2016

NOTE: "FAIR" MEANS FEW OR NO CLOUDS BELOW 12,000 FEET AGL WITH NO
       SIGNIFICANT WEATHER OR OBSTRUCTIONS TO VISION.

      THIS PRODUCT IS RELEASED AS TWO VERSIONS.  ONE VERSION NEAR
      THE TOP OF THE HOUR CONTAINING PRELIMINARY DATA FROM ALBUQUERQUE
      AND OTHER STATIONS.  A FINAL VERSION WITH ADDITIONAL DATA IS
      ISSUED ABOUT 10 MINUTES AFTER THE HOUR.

NMZ501-503-504-510>518-280200-
NORTHWEST PLATEAU/NORTHCENTRAL MOUNTAINS

CITY           SKY/WX    TMP DP  RH WIND       PRES   REMARKS
FARMINGTON     CLOUDY    60  26  27 W8        29.75S
SANTA FE       FAIR      61  22  22 W13       29.78S
TAOS           FAIR      55  19  24 W13       29.81S
ANGEL FIRE     MOCLDY    46  21  37 W8G24     29.87R

$$
NMZ402-403-502-505>509-280200-
WESTCENTRAL MOUNTAINS/SOUTHWEST MOUNTAINS

CITY           SKY/WX    TMP DP  RH WIND       PRES   REMARKS
GALLUP         CLOUDY    59  23  25 SW8       29.78F
GRANTS         FAIR      62  21  20 NW13G18   29.80S
SILVER CITY      N/A     66  16  14 W10       29.82F

$$
NMZ407-409-411-412-280200-
SOUTHERN DESERTS

CITY           SKY/WX    TMP DP  RH WIND       PRES   REMARKS
LORDSBURG      FAIR      75  12   9 W14G21    29.73S
DEMING         FAIR      75  16  10 W10G22    29.74F
HOLLOMAN AFB   FAIR      75  11   8 SW15      29.73S
ALAMOGORDO     FAIR      73  14  10 SW14      29.75S
T OR C         FAIR      71  15  11 W18G25    29.73R

$$
NMZ519>523-280200-
CENTRAL VALLEYS/CENTRAL HIGHLANDS

CITY           SKY/WX    TMP DP  RH WIND       PRES   REMARKS
ALBUQUERQUE    MOCLDY    68  22  17 W8        29.73F
DOUBLE EAGLE   MOCLDY    64  21  19 W8        29.75F
CLINES CORNERS CLOUDY    58  19  22 W10       29.80S
BELEN          CLOUDY    68  20  16 S9        29.73R
SOCORRO        NOT AVBL

$$
NMZ524>526-539-540-280200-
SOUTHCENTRAL MOUNTAINS

CITY           SKY/WX    TMP DP  RH WIND       PRES   REMARKS
RUIDOSO        NOT AVBL

$$
NMZ527>531-280200-
NORTHEAST HIGHLANDS/NORTHEAST PLAINS

CITY           SKY/WX    TMP DP  RH WIND       PRES   REMARKS
LAS VEGAS      MOCLDY    60  20  21 W21       29.79R
RATON          CLOUDY    59  27  29 N12       29.72R
CLAYTON        FAIR      57  30  35 E17       29.76R

$$
NMZ532>537-280200-
EASTCENTRAL PLAINS

CITY           SKY/WX    TMP DP  RH WIND       PRES   REMARKS
TUCUMCARI      FAIR      69  29  22 E7        29.66S
CANNON AFB     NOT AVBL
CLOVIS AIRPORT FAIR      66  27  22 SW10      29.73S

$$
NMZ028-029-538-280200-
SOUTHEAST PLAINS

CITY           SKY/WX    TMP DP  RH WIND       PRES   REMARKS
ROSWELL        FAIR      77  20  12 SE6       29.66F
ARTESIA        FAIR      79  19  11 SW23      29.69R
CARLSBAD       FAIR      78  15   9 SW16      29.69S
HOBBS          FAIR      75  16  10 S12       29.74R


$$




USA.gov is the U.S. government's official web portal to all federal, state and local government web resources and services.